Content
SEND FEEDBACK

Daily
Averages
Monthly
Summary
United States of America

LAUGHLIN, NEVADA


Home > North America > United States > Nevada
Elevation: 1018 feet     Latitude: 35 10N     Longitude: 114 37W

WEATHER
 
SELECT A DAY
Number of Records: 188,745;   Date Range: 7/1/96 - 10/18/14
 
SHARE

PRINT THIS DATA

[ ← Previous Day ]
WEATHER ALMANAC - FEBRUARY 22, 2013
[ Next Day → ]
[ °C ]   °F
Weather ElementAverageHighLow
Temperature48.3 °F60.8 °F (3:35 pm)35.6 °F (6:15 am)
Dewpoint26.5 °F35.6 °F (9:35 am)17.6 °F (2:15 pm)
Humidity49.6 %87 % (6:15 am)19 % (3:35 pm)
Barometer30.14 in30.21 in (9:35 am)30.08 in (12:35 am)
Wind Speed6.4 mph21.9 mph (2:15 pm)
Wind Gust25.3 mph (1:35 pm)
Weather ElementAverage
Visibility10 mi
Wind DirectionESE (122.8 °)

Weather ElementTotal
Precipitation---
Heating Degree Days16.8 (Base 65)
Averaged from 71 records on February 22, 2013
WEATHER CONDITIONS BREAKOUT
WIND DIRECTION BREAKOUT
WEATHER BY HOUR - FEBRUARY 22, 2013
[ °C ]   °F
Local TimeTemperatureDewpointHumidityBarometerVisibilityWind DirectionWind SpeedGust SpeedPrecipitationEventsConditions
12:35 AM42.8 °F32.0 °F66 %30.08 in10.0 miENE (70°)6.9 mphClear
12:55 AM42.8 °F32.0 °F66 %30.08 in10.0 miCalmClear
1:15 AM41.0 °F32.0 °F70 %30.09 in10.0 miNNE (20°)3.5 mphClear
1:35 AM41.0 °F33.8 °F76 %30.09 in10.0 miCalmClear
1:55 AM41.0 °F32.0 °F70 %30.09 in10.0 miCalmClear
2:15 AM39.2 °F32.0 °F75 %30.09 in10.0 miCalmClear
2:35 AM39.2 °F32.0 °F75 %30.10 in10.0 miCalmClear
2:55 AM39.2 °F32.0 °F75 %30.10 in10.0 miCalmClear
3:15 AM39.2 °F32.0 °F75 %30.10 in10.0 miEast (90°)3.5 mphClear
3:35 AM39.2 °F32.0 °F75 %30.11 in10.0 miCalmClear
3:55 AM39.2 °F32.0 °F75 %30.11 in10.0 miCalmClear
4:15 AM37.4 °F32.0 °F81 %30.11 in10.0 miSW (220°)4.6 mphClear
4:35 AM37.4 °F32.0 °F81 %30.11 in10.0 miSSE (150°)3.5 mphClear
4:55 AM37.4 °F32.0 °F81 %30.12 in10.0 miCalmClear
5:15 AM37.4 °F32.0 °F81 %30.12 in10.0 miCalmClear
5:35 AM37.4 °F32.0 °F81 %30.13 in10.0 miCalmClear
5:55 AM37.4 °F32.0 °F81 %30.14 in10.0 miCalmClear
6:15 AM35.6 °F32.0 °F87 %30.15 in10.0 miCalmClear
6:35 AM35.6 °F32.0 °F87 %30.15 in10.0 miCalmClear
6:55 AM35.6 °F32.0 °F87 %30.16 in10.0 miCalmClear
7:15 AM35.6 °F32.0 °F87 %30.16 in10.0 miCalmClear
7:35 AM35.6 °F32.0 °F87 %30.16 in10.0 miCalmClear
7:55 AM37.4 °F32.0 °F81 %30.16 in10.0 miSouth (170°)3.5 mphClear
8:15 AM39.2 °F32.0 °F75 %30.18 in10.0 miCalmClear
8:35 AM39.2 °F32.0 °F75 %30.18 in10.0 miCalmClear
8:55 AM41.0 °F32.0 °F70 %30.20 in10.0 miCalmClear
9:15 AM41.0 °F33.8 °F76 %30.20 in10.0 miCalmClear
9:35 AM42.8 °F35.6 °F76 %30.21 in10.0 miCalmClear
9:55 AM44.6 °F33.8 °F66 %30.21 in10.0 miCalmClear
10:15 AM46.4 °F32.0 °F57 %30.21 in10.0 miCalmClear
10:35 AM48.2 °F35.6 °F62 %30.21 in10.0 miCalmClear
10:55 AM50.0 °F26.6 °F40 %30.20 in10.0 miNorth (350°)15.0 mphClear
11:15 AM53.6 °F24.8 °F33 %30.21 in10.0 miNorth (360°)12.7 mphClear
11:35 AM53.6 °F23.0 °F30 %30.20 in10.0 miNorth (350°)16.1 mphClear
11:55 AM53.6 °F21.2 °F28 %30.20 in10.0 miNNW (340°)16.1 mphClear
12:15 PM55.4 °F23.0 °F29 %30.20 in10.0 miNorth (350°)17.3 mphClear
12:35 PM55.4 °F21.2 °F26 %30.19 in10.0 miNNW (340°)17.3 mph21.9 mphClear
12:55 PM55.4 °F21.2 °F26 %30.18 in10.0 miNorth (350°)17.3 mphClear
1:15 PM57.2 °F19.4 °F23 %30.16 in10.0 miNorth (350°)19.6 mphRainLight Rain
1:35 PM57.2 °F19.4 °F23 %30.15 in10.0 miNorth (350°)20.7 mph25.3 mphRainLight Rain
1:55 PM57.2 °F19.4 °F23 %30.14 in10.0 miNorth (350°)15.0 mphClear
2:15 PM59.0 °F17.6 °F20 %30.13 in10.0 miNorth (350°)21.9 mphClear
2:35 PM59.0 °F17.6 °F20 %30.12 in10.0 miNNW (340°)19.6 mphRainLight Rain
2:55 PM59.0 °F17.6 °F20 %30.12 in10.0 miNNW (340°)13.8 mph20.7 mphClear
3:15 PM59.0 °F17.6 °F20 %30.11 in10.0 miNNW (340°)16.1 mphClear
3:35 PM60.8 °F17.6 °F19 %30.10 in10.0 miNorth (360°)17.3 mphThunderstormClear
3:55 PM60.8 °F19.4 °F20 %30.10 in10.0 miNNW (330°)11.5 mphClear
4:15 PM60.8 °F19.4 °F20 %30.10 in10.0 miNNW (340°)17.3 mphClear
4:35 PM60.8 °F19.4 °F20 %30.10 in10.0 miNorth (350°)16.1 mph20.7 mphClear
4:55 PM60.8 °F19.4 °F20 %30.11 in10.0 miNNW (340°)15.0 mph20.7 mphClear
5:15 PM60.8 °F19.4 °F20 %30.11 in10.0 miNorth (350°)15.0 mphClear
5:35 PM59.0 °F19.4 °F22 %30.10 in10.0 miNorth (360°)16.1 mphClear
5:55 PM60.8 °F17.6 °F19 %30.11 in10.0 miNNE (20°)12.7 mphClear
6:15 PM59.0 °F17.6 °F20 %30.12 in10.0 miNNE (20°)12.7 mphClear
6:35 PM59.0 °F17.6 °F20 %30.12 in10.0 miNNE (20°)11.5 mphClear
6:55 PM57.2 °F19.4 °F23 %30.13 in10.0 miNorth (10°)9.2 mphClear
7:15 PM57.2 °F19.4 °F23 %30.13 in10.0 miNNE (20°)6.9 mphClear
7:35 PM57.2 °F19.4 °F23 %30.13 in10.0 miCalmClear
7:55 PM55.4 °F21.2 °F26 %30.13 in10.0 miCalmClear
8:15 PM53.6 °F24.8 °F33 %30.13 in10.0 miSSW (210°)5.8 mphClear
8:35 PM53.6 °F24.8 °F33 %30.13 in10.0 miCalmClear
8:55 PM51.8 °F24.8 °F35 %30.14 in10.0 miCalmClear
9:15 PM48.2 °F28.4 °F46 %30.14 in10.0 miCalmClear
9:35 PM50.0 °F30.2 °F47 %30.15 in10.0 miEast (80°)3.5 mphClear
9:55 PM48.2 °F28.4 °F46 %30.15 in10.0 miCalmClear
10:15 PM48.2 °F26.6 °F43 %30.16 in10.0 miENE (70°)3.5 mphClear
10:35 PM50.0 °F24.8 °F37 %30.16 in10.0 miCalmClear
10:55 PM48.2 °F26.6 °F43 %30.16 in10.0 miENE (70°)5.8 mphClear
11:15 PM46.4 °F26.6 °F46 %30.16 in10.0 miEast (80°)3.5 mphClear
11:35 PM46.4 °F28.4 °F50 %30.16 in10.0 miCalmClear
11:55 PM44.6 °F28.4 °F53 %30.15 in10.0 miESE (110°)5.8 mphClear
Hourly data recorded from KIFP, located miles away from Laughlin, Nevada







STORIES FROM OUR PARTNERS